World > North America > United States > Ohio

Southington, Ohio Regional Weather

Lat: 41.31N, Lon: 80.96W
Wx Zone: OHZ023Web Search
Southington Weather Warning NWS WEATHER ALERT FOR THE SOUTHINGTON, OH AREA - Issued: 314 PM EDT Sat May 8 2021 Southington Weather Warning  

Helpful Tip: Abbreviated, 7 Day, 14 Day Forecasts. There is a weather forecast for every taste.

Feedback


°F Click to change Southington hourly weather to Imperial units.Click to change Southington hourly weather to Metric units. °C
Southington Weather Map
UTC Time: 5/9/2021, 04:53
Your Time:

Southington, OH Regional Weather

Expires:202105090500;;820360
ASUS41 KCLE 090412
RWRCLE
OHIO REGIONAL WEATHER ROUNDUP
NATIONAL WEATHER SERVICE WILMINGTON, OH
1200 AM EDT SUN MAY 09 2021

NOTE: "FAIR" INDICATES FEW OR NO CLOUDS BELOW 12,000 FEET WITH NO
SIGNIFICANT WEATHER AND/OR OBSTRUCTIONS TO VISIBILITY.


OHZ009>014-019>023-028>033-038-089-090500-
   NORTHEAST OHIO
  
CITY           SKY/WX    TMP DP  RH WIND       PRES   REMARKS
CLE-HOPKINS    MOCLDY    43  34  70 SE3       30.06F                  
CLE-LAKEFRONT  FAIR      47  35  63 SE5       30.07F                  
CUY CO. ARPT   FAIR      38  35  90 CALM      30.09F                  
LORAIN-ELYRIA  FAIR      45  37  73 CALM      30.07F                  
ASHTABULA      FAIR      36  34  92 CALM      30.10F                  
AKRON-CANTON   CLOUDY    45  34  65 SE6       30.08F                  
WOOSTER        FAIR      43  39  86 CALM      30.08F                  
MANSFIELD      FAIR      47  36  65 E7        30.06F                  
YOUNGSTOWN     MOCLDY    33  31  92 E3        30.08F                  
$$
 

SKY/WX - Weather  TMP - Temperature  DP - Dew Point  RH - Relative Humidity
WIND - Wind Direction/Speed PRES - Barometric Pressure VSB - Visibility
WCI - Wind Chill Index E13G22 Wind - East Wind 13 mph/Gusts of 22 mph